{"data":{"norad_id":66436,"intl_designator":"2025-259Q","name":"STARLINK-35501","alt_names":[],"object_type":"PAYLOAD","status":"ACTIVE","operator":null,"country":"US","launch_date":"2025-11-11","launch_site_code":"AFETR","launch_vehicle":null,"mission":null,"orbit_class":"UNKNOWN","rcs_meters":null,"size_class":null,"mass_kg":null,"dimensions":null,"purposes":["comms"],"wikipedia_slug":null,"has_3d_model":false,"image_url":null,"decayed_at":null,"tle_current":{"epoch":"2026-05-24T14:17:21.731424Z","epoch_age_seconds":100279,"freshness":"FRESH","line1":"1 66436U 25259Q   26144.59539041  .00011941  00000+0  44229-3 0  9990","line2":"2 66436  43.0004 205.3599 0001383 271.9260  88.1433 15.27613651 31102","mean_motion":15.27613651,"eccentricity":0.0001383,"inclination_deg":43.0004,"raan_deg":205.3599,"arg_perigee_deg":271.926,"mean_anomaly_deg":88.1433,"bstar":0.00044229,"rev_number":3110,"period_min":94.26467216088,"perigee_km":481.9994465877,"apogee_km":483.89722279128,"semimajor_km":6861.0853346895,"source":"CELESTRAK","updated_at":"2026-05-25T13:38:21.209902Z"}}}